User: anonymous   Login
Location: *
(43.6428°N, 11.5461°E)
Time: 12:27:18
(UTC+00:00)
Language:

Cosmos 44 - Orbit

View from above orbital plane
View from above orbital plane
View from above satellite
View from above satellite

Ground track
Ground track

The orbit data is extracted from the following two-line orbital elements,

1   876U 64053A   19345.14233882 -.00000087  00000-0  86420-5 0  9993
2   876  65.0598 143.4663 0123445 118.8857 242.4696 14.63746252940680
Epoch (UTC): 11 December 2019 03:24:58
Eccentricity: 0.0123445
inclination: 65.0598°
perigee height: 594 km
apogee height: 768 km
right ascension of ascending node: 143.4663°
argument of perigee: 118.8857°
revolutions per day: 14.63746252
mean anomaly at epoch: 242.4696°
orbit number at epoch: 94068

The dashed part of the orbit path shows where the satellite is in the earth's shadow,  

DLR